Tracking 19792 objects as of 16-Jul-2019
HD Live streaming from Space Station
objects crossing your sky now

SL-14 R/B

Track SL-14 R/B now!
10-day predictions


NORAD ID: 10096
Int'l Code: 1977-055B
Perigee: 579.9 km
Apogee: 638.6 km
Inclination: 75.8 °
Period: 96.7 minutes
Semi major axis: 6980 km
RCS: 3.6575 m2 (large)
Launch date: June 24, 1977
Source: Commonwealth of Independent States (former USSR) (CIS)
Launch site: PLESETSK MISSILE AND SPACE COMPLEX (PKMTR)

Note: This is a ROCKET BODY
aabbcc
Your satellite tracking list
Your tracking list is empty




NASA's NSSDC Master Catalog

Two Line Element Set (TLE):
1 10096U 77055B   19197.15156255  .00000020  00000-0  42521-5 0  9998
2 10096  75.8348  91.4440 0042012  73.2850 287.2946 14.88669433275171
Source of the keplerian elements: AFSPC